EN

Hourly Weather Pajakowka

Today, 2 March, Tuesday

Time Temperature Precipitation Wind Pressure Humidity
00:00 -3°C° 0 mm 0 mps 675 mmHg 75%
01:00 -2°C° 0 mm 1 mps 676 mmHg 73%
02:00 -2°C° 0 mm 1 mps 675 mmHg 71%
03:00 -2°C° 0 mm 1 mps 675 mmHg 69%
04:00 -2°C° 0 mm 1 mps 675 mmHg 67%
05:00 -2°C° 0 mm 1 mps 675 mmHg 66%
06:00 -1°C° 0 mm 1 mps 675 mmHg 64%
07:00 -1°C° 0 mm 1 mps 675 mmHg 62%
08:00 +1°C° 0 mm 1 mps 676 mmHg 59%
09:00 +3°C° 0 mm 1 mps 676 mmHg 56%
10:00 +6°C° 0 mm 1 mps 677 mmHg 53%
11:00 +7°C° 0 mm 1 mps 677 mmHg 52%
12:00 +8°C° 0 mm 1 mps 677 mmHg 51%
13:00 +9°C° 0 mm 1 mps 677 mmHg 50%
14:00 +8°C° 0 mm 1 mps 677 mmHg 55%
15:00 +7°C° 0 mm 1 mps 676 mmHg 60%
16:00 +6°C° 0 mm 1 mps 676 mmHg 65%
17:00 +5°C° 0 mm 1 mps 676 mmHg 67%
18:00 +3°C° 0 mm 1 mps 675 mmHg 68%
19:00 +2°C° 0 mm 1 mps 675 mmHg 69%
20:00 +1°C° 0 mm 1 mps 675 mmHg 68%
21:00 +1°C° 0 mm 1 mps 675 mmHg 67%
22:00 +1°C° 0 mm 1 mps 675 mmHg 66%
23:00 +1°C° 0 mm 1 mps 675 mmHg 66%

Tomorrow, 3 March, Wednesday

Time Temperature Precipitation Wind Pressure Humidity
00:00 +1°C° 0 mm 1 mps 675 mmHg 66%
01:00 -1°C° 0 mm 0 mps 675 mmHg 65%
02:00 -1°C° 0 mm 0 mps 674 mmHg 65%
03:00 -1°C° 0 mm 0 mps 674 mmHg 64%
04:00 0°C° 0 mm 1 mps 674 mmHg 63%
05:00 0°C° 0 mm 1 mps 674 mmHg 62%
06:00 +1°C° 0 mm 1 mps 674 mmHg 60%
07:00 +1°C° 0 mm 1 mps 674 mmHg 59%
08:00 +3°C° 0 mm 1 mps 674 mmHg 55%
09:00 +4°C° 0 mm 0 mps 675 mmHg 52%
10:00 +7°C° 0 mm 0 mps 675 mmHg 49%
11:00 +8°C° 0 mm 0 mps 675 mmHg 47%
12:00 +9°C° 0 mm 1 mps 675 mmHg 46%
13:00 +10°C° 0 mm 1 mps 675 mmHg 45%
14:00 +9°C° 0 mm 1 mps 674 mmHg 50%
15:00 +9°C° 0 mm 1 mps 673 mmHg 56%
16:00 +8°C° 0 mm 1 mps 673 mmHg 61%
17:00 +6°C° 0 mm 1 mps 672 mmHg 67%
18:00 +4°C° 0 mm 1 mps 671 mmHg 72%
19:00 +2°C° 0 mm 1 mps 671 mmHg 77%
20:00 +2°C° 0 mm 1 mps 670 mmHg 78%
21:00 -1°C° 0 mm 2 mps 670 mmHg 79%
22:00 -1°C° 0 mm 2 mps 669 mmHg 81%
23:00 -2°C° 0 mm 2 mps 669 mmHg 80%

Day after tomorrow, 4 March, Thursday

Time Temperature Precipitation Wind Pressure Humidity
00:00 0°C° 0 mm 1 mps 669 mmHg 79%
01:00 0°C° 0 mm 1 mps 668 mmHg 79%
02:00 0°C° 0 mm 1 mps 668 mmHg 78%
03:00 0°C° 0 mm 1 mps 667 mmHg 77%
04:00 0°C° 0 mm 1 mps 667 mmHg 76%
05:00 0°C° 0 mm 1 mps 666 mmHg 75%
06:00 -2°C° 0 mm 2 mps 666 mmHg 73%
07:00 -1°C° 0 mm 2 mps 666 mmHg 72%
08:00 +2°C° 0 mm 2 mps 666 mmHg 67%
09:00 +4°C° 0 mm 2 mps 666 mmHg 62%
10:00 +6°C° 0 mm 2 mps 667 mmHg 57%
11:00 +7°C° 0 mm 2 mps 666 mmHg 56%
12:00 +7°C° 0 mm 3 mps 666 mmHg 56%
13:00 +8°C° 0 mm 3 mps 666 mmHg 55%
14:00 +7°C° 0 mm 2 mps 665 mmHg 59%
15:00 +7°C° 0 mm 2 mps 665 mmHg 63%
16:00 +6°C° 0 mm 2 mps 664 mmHg 67%
17:00 +5°C° 0 mm 2 mps 663 mmHg 72%
18:00 +4°C° 0 mm 1 mps 663 mmHg 77%
19:00 +3°C° 0 mm 1 mps 662 mmHg 82%
20:00 +3°C° 0 mm 1 mps 662 mmHg 82%
21:00 +3°C° 0 mm 1 mps 662 mmHg 83%
22:00 +3°C° 0 mm 1 mps 662 mmHg 84%
23:00 +2°C° 0.2 mm 1 mps 661 mmHg 86%

5 March, Friday

Time Temperature Precipitation Wind Pressure Humidity
00:00 +2°C° 0.2 mm 1 mps 661 mmHg 88%
01:00 +2°C° 0.2 mm 1 mps 661 mmHg 90%
02:00 +2°C° 0.5 mm 1 mps 661 mmHg 93%
03:00 +1°C° 0.5 mm 1 mps 661 mmHg 95%
04:00 +1°C° 0.5 mm 1 mps 661 mmHg 97%
05:00 +1°C° 0.4 mm 1 mps 661 mmHg 98%
06:00 0°C° 0.4 mm 1 mps 661 mmHg 98%
07:00 0°C° 0.4 mm 1 mps 661 mmHg 98%
08:00 -2°C° 0.8 mm 2 mps 661 mmHg 97%
09:00 -3°C° 0.8 mm 2 mps 661 mmHg 96%
10:00 -3°C° 0.8 mm 2 mps 661 mmHg 95%
11:00 -3°C° 0.9 mm 2 mps 662 mmHg 94%
12:00 -4°C° 0.9 mm 2 mps 662 mmHg 94%
13:00 -5°C° 0.9 mm 3 mps 662 mmHg 93%
14:00 -5°C° 0.4 mm 3 mps 662 mmHg 92%
15:00 -6°C° 0.4 mm 3 mps 663 mmHg 91%
16:00 -6°C° 0.4 mm 3 mps 663 mmHg 90%
17:00 -7°C° 0.3 mm 3 mps 664 mmHg 91%
18:00 -8°C° 0.3 mm 3 mps 664 mmHg 91%
19:00 -8°C° 0.3 mm 2 mps 665 mmHg 92%
20:00 -8°C° 0.1 mm 2 mps 665 mmHg 91%
21:00 -9°C° 0.1 mm 2 mps 665 mmHg 91%
22:00 -9°C° 0.1 mm 2 mps 665 mmHg 90%
23:00 -9°C° 0 mm 1 mps 666 mmHg 88%

6 March, Saturday

Time Temperature Precipitation Wind Pressure Humidity
00:00 -9°C° 0 mm 1 mps 666 mmHg 87%
01:00 -10°C° 0 mm 1 mps 666 mmHg 85%
02:00 -9°C° 0 mm 1 mps 666 mmHg 87%
03:00 -9°C° 0 mm 1 mps 667 mmHg 88%
04:00 -9°C° 0 mm 1 mps 667 mmHg 89%
05:00 -10°C° 0.1 mm 2 mps 668 mmHg 89%
06:00 -10°C° 0.1 mm 2 mps 668 mmHg 90%
07:00 -9°C° 0.1 mm 2 mps 669 mmHg 90%
08:00 -10°C° 0.2 mm 3 mps 669 mmHg 82%
09:00 -9°C° 0.2 mm 3 mps 670 mmHg 75%
10:00 -9°C° 0.2 mm 4 mps 670 mmHg 68%
11:00 -8°C° 0.1 mm 3 mps 671 mmHg 66%
12:00 -8°C° 0.1 mm 3 mps 671 mmHg 64%
13:00 -7°C° 0.1 mm 3 mps 671 mmHg 62%
14:00 -8°C° 0.1 mm 3 mps 671 mmHg 64%
15:00 -8°C° 0.1 mm 3 mps 671 mmHg 65%
16:00 -7°C° 0.1 mm 2 mps 671 mmHg 66%
17:00 -8°C° 0 mm 2 mps 671 mmHg 71%
18:00 -9°C° 0 mm 1 mps 670 mmHg 75%
19:00 -10°C° 0 mm 1 mps 670 mmHg 80%
20:00 -10°C° 0 mm 1 mps 670 mmHg 80%
21:00 -10°C° 0 mm 1 mps 670 mmHg 80%
22:00 -10°C° 0 mm 1 mps 670 mmHg 80%
23:00 -10°C° 0 mm 1 mps 670 mmHg 81%

7 March, Sunday

Time Temperature Precipitation Wind Pressure Humidity
00:00 -10°C° 0 mm 1 mps 670 mmHg 81%
01:00 -10°C° 0 mm 1 mps 670 mmHg 82%
02:00 -10°C° 0 mm 1 mps 669 mmHg 81%
03:00 -10°C° 0 mm 1 mps 669 mmHg 81%
04:00 -12°C° 0 mm 2 mps 669 mmHg 80%
05:00 -12°C° 0 mm 2 mps 669 mmHg 79%
06:00 -12°C° 0 mm 2 mps 668 mmHg 78%
07:00 -10°C° 0 mm 2 mps 668 mmHg 76%
08:00 -8°C° 0 mm 2 mps 669 mmHg 70%
09:00 -7°C° 0 mm 2 mps 669 mmHg 64%
10:00 -6°C° 0 mm 3 mps 669 mmHg 59%
11:00 -5°C° 0 mm 3 mps 669 mmHg 59%
12:00 -4°C° 0 mm 3 mps 668 mmHg 59%
13:00 -2°C° 0 mm 3 mps 668 mmHg 59%
14:00 -2°C° 0 mm 3 mps 667 mmHg 61%
15:00 -4°C° 0 mm 3 mps 666 mmHg 63%
16:00 -4°C° 0 mm 3 mps 666 mmHg 65%
17:00 -5°C° 0 mm 3 mps 665 mmHg 70%
18:00 -6°C° 0 mm 2 mps 664 mmHg 74%
19:00 -7°C° 0 mm 2 mps 664 mmHg 78%
20:00 -7°C° 0 mm 2 mps 664 mmHg 79%
21:00 -7°C° 0 mm 2 mps 663 mmHg 79%
22:00 -8°C° 0 mm 2 mps 663 mmHg 79%
23:00 -8°C° 0 mm 2 mps 663 mmHg 80%
Show more

We Need Your Consent

Meteoprog and our Service Providers may store and access personal data such as cookies, device identifiers or other similar technologies on your device and process such data to personalise content and ads, as well as provide social media features and to analyse the traffic.

  • Store and/or access information on your device

    Cookies, device identifiers or other information can be stored or accessed on your device for the purposes indicated above.

  • Personalised ads and content, ad and content measurement, audience insights, and products development

    Ads and content can be personalised based on a profile. More data can be added to better personalise ads and content. Ad and content performance can be measured. Insights about the audience who saw the ads and content can be derived. Such data can be used to develop or improve user’s experience, systems and software.

By clicking ‘I Agree’ you will allow the use of indicated cookies, device identifiers, web beacons or other similar technologies. Your settings can be changed in the browser on your device.

For certain purposes, legitimate interests may be relied on, rather than consent. You can read more about this in our Privacy and Cookie Policy.